• In Österreich
  • Länderverzeichnis
  • Für 7 Tage
  • Wassertemperatur
  • Satellitenkarten
  • Wetterkarte
  • News
  • Widgets
  • user-avatar
    Anmelden

    Stündliche Wetter Cairns

    Heute, 20 Mai, Sonntag

    Zeit Temperatur Niederschläge Wind Luftdruck Luftfeuchtigkeit
    00:00 +23°C° 0,1 mm 6 m/S 760 mmHg 94%
    01:00 +23°C° 0,1 mm 6 m/S 760 mmHg 94%
    02:00 +23°C° 0,1 mm 6 m/S 760 mmHg 94%
    03:00 +23°C° 0,1 mm 6 m/S 760 mmHg 94%
    04:00 +23°C° 0 mm 6 m/S 760 mmHg 94%
    05:00 +23°C° 0,1 mm 6 m/S 760 mmHg 94%
    06:00 +23°C° 0,1 mm 6 m/S 760 mmHg 94%
    07:00 +23°C° 0,1 mm 6 m/S 760 mmHg 94%
    08:00 +24°C° 0,1 mm 7 m/S 761 mmHg 89%
    09:00 +26°C° 0,1 mm 7 m/S 761 mmHg 85%
    10:00 +26°C° 0 mm 8 m/S 761 mmHg 82%
    11:00 +27°C° 0,1 mm 7 m/S 761 mmHg 81%
    12:00 +27°C° 0,1 mm 7 m/S 761 mmHg 80%
    13:00 +27°C° 0,1 mm 7 m/S 760 mmHg 79%
    14:00 +27°C° 0,1 mm 7 m/S 760 mmHg 82%
    15:00 +26°C° 0,1 mm 7 m/S 760 mmHg 84%
    16:00 +26°C° 0 mm 7 m/S 760 mmHg 87%
    17:00 +24°C° 0,2 mm 7 m/S 761 mmHg 89%
    18:00 +23°C° 0,2 mm 7 m/S 761 mmHg 91%
    19:00 +23°C° 0,2 mm 7 m/S 761 mmHg 94%
    20:00 +23°C° 0,1 mm 6 m/S 761 mmHg 93%
    21:00 +22°C° 0,1 mm 6 m/S 761 mmHg 93%
    22:00 +22°C° 0,1 mm 6 m/S 762 mmHg 93%
    23:00 +22°C° 0,1 mm 6 m/S 762 mmHg 93%

    Morgen, 21 Mai, Montag

    Zeit Temperatur Niederschläge Wind Luftdruck Luftfeuchtigkeit
    00:00 +22°C° 0,1 mm 6 m/S 761 mmHg 94%
    01:00 +22°C° 0,1 mm 6 m/S 761 mmHg 94%
    02:00 +22°C° 0 mm 6 m/S 761 mmHg 94%
    03:00 +22°C° 0 mm 6 m/S 761 mmHg 94%
    04:00 +22°C° 0 mm 6 m/S 761 mmHg 94%
    05:00 +22°C° 0 mm 6 m/S 761 mmHg 93%
    06:00 +22°C° 0 mm 7 m/S 761 mmHg 93%
    07:00 +22°C° 0 mm 7 m/S 761 mmHg 92%
    08:00 +23°C° 0 mm 7 m/S 761 mmHg 88%
    09:00 +24°C° 0 mm 7 m/S 762 mmHg 84%
    10:00 +26°C° 0 mm 7 m/S 762 mmHg 80%
    11:00 +26°C° 0 mm 8 m/S 762 mmHg 78%
    12:00 +27°C° 0 mm 8 m/S 761 mmHg 77%
    13:00 +27°C° 0 mm 8 m/S 761 mmHg 75%
    14:00 +27°C° 0 mm 8 m/S 761 mmHg 75%
    15:00 +26°C° 0 mm 8 m/S 761 mmHg 76%
    16:00 +26°C° 0 mm 8 m/S 760 mmHg 76%
    17:00 +24°C° 0 mm 8 m/S 761 mmHg 79%
    18:00 +23°C° 0 mm 8 m/S 761 mmHg 83%
    19:00 +22°C° 0 mm 8 m/S 762 mmHg 86%
    20:00 +22°C° 0 mm 7 m/S 762 mmHg 87%
    21:00 +22°C° 0 mm 7 m/S 763 mmHg 88%
    22:00 +21°C° 0 mm 7 m/S 763 mmHg 88%
    23:00 +21°C° 0 mm 7 m/S 763 mmHg 89%

    übermorgen, 22 Mai, Dienstag

    Zeit Temperatur Niederschläge Wind Luftdruck Luftfeuchtigkeit
    00:00 +21°C° 0 mm 7 m/S 763 mmHg 89%
    01:00 +21°C° 0 mm 7 m/S 763 mmHg 90%
    02:00 +21°C° 0 mm 7 m/S 762 mmHg 88%
    03:00 +21°C° 0 mm 7 m/S 762 mmHg 87%
    04:00 +21°C° 0 mm 7 m/S 762 mmHg 85%
    05:00 +21°C° 0 mm 7 m/S 762 mmHg 83%
    06:00 +20°C° 0 mm 7 m/S 762 mmHg 81%
    07:00 +20°C° 0 mm 7 m/S 763 mmHg 80%
    08:00 +22°C° 0 mm 7 m/S 763 mmHg 71%
    09:00 +23°C° 0 mm 7 m/S 763 mmHg 63%
    10:00 +26°C° 0 mm 8 m/S 763 mmHg 55%
    11:00 +27°C° 0 mm 8 m/S 763 mmHg 52%
    12:00 +28°C° 0 mm 8 m/S 762 mmHg 49%
    13:00 +28°C° 0 mm 8 m/S 762 mmHg 46%
    14:00 +28°C° 0 mm 8 m/S 761 mmHg 48%
    15:00 +27°C° 0 mm 7 m/S 761 mmHg 50%
    16:00 +26°C° 0 mm 7 m/S 761 mmHg 52%
    17:00 +23°C° 0 mm 7 m/S 761 mmHg 58%
    18:00 +22°C° 0 mm 7 m/S 762 mmHg 65%
    19:00 +20°C° 0 mm 6 m/S 762 mmHg 71%
    20:00 +20°C° 0 mm 6 m/S 762 mmHg 74%
    21:00 +19°C° 0 mm 6 m/S 763 mmHg 76%
    22:00 +19°C° 0 mm 6 m/S 763 mmHg 79%
    23:00 +19°C° 0 mm 6 m/S 763 mmHg 80%

    23 Mai, Mittwoch

    Zeit Temperatur Niederschläge Wind Luftdruck Luftfeuchtigkeit
    00:00 +19°C° 0 mm 6 m/S 763 mmHg 82%
    01:00 +19°C° 0 mm 6 m/S 762 mmHg 83%
    02:00 +19°C° 0 mm 6 m/S 762 mmHg 85%
    03:00 +19°C° 0 mm 6 m/S 762 mmHg 86%
    04:00 +19°C° 0 mm 6 m/S 762 mmHg 88%
    05:00 +19°C° 0 mm 6 m/S 762 mmHg 88%
    06:00 +19°C° 0 mm 6 m/S 762 mmHg 88%
    07:00 +19°C° 0 mm 6 m/S 763 mmHg 88%
    08:00 +21°C° 0 mm 6 m/S 763 mmHg 81%
    09:00 +23°C° 0 mm 6 m/S 763 mmHg 73%
    10:00 +26°C° 0 mm 7 m/S 763 mmHg 66%
    11:00 +27°C° 0 mm 7 m/S 762 mmHg 64%
    12:00 +27°C° 0 mm 7 m/S 762 mmHg 61%
    13:00 +28°C° 0 mm 7 m/S 761 mmHg 59%
    14:00 +27°C° 0 mm 7 m/S 761 mmHg 62%
    15:00 +27°C° 0 mm 7 m/S 760 mmHg 65%
    16:00 +26°C° 0 mm 7 m/S 760 mmHg 68%
    17:00 +24°C° 0 mm 6 m/S 761 mmHg 74%
    18:00 +22°C° 0 mm 6 m/S 761 mmHg 80%
    19:00 +21°C° 0 mm 6 m/S 761 mmHg 87%
    20:00 +21°C° 0 mm 6 m/S 762 mmHg 88%
    21:00 +21°C° 0 mm 5 m/S 762 mmHg 90%
    22:00 +21°C° 0 mm 5 m/S 763 mmHg 91%
    23:00 +21°C° 0,1 mm 5 m/S 762 mmHg 92%

    24 Mai, Donnerstag

    Zeit Temperatur Niederschläge Wind Luftdruck Luftfeuchtigkeit
    00:00 +21°C° 0,1 mm 5 m/S 762 mmHg 92%
    01:00 +21°C° 0,1 mm 5 m/S 761 mmHg 93%
    02:00 +21°C° 0,1 mm 5 m/S 761 mmHg 93%
    03:00 +21°C° 0,1 mm 6 m/S 760 mmHg 93%
    04:00 +21°C° 0,1 mm 6 m/S 760 mmHg 93%
    05:00 +20°C° 0 mm 5 m/S 760 mmHg 93%
    06:00 +20°C° 0 mm 5 m/S 761 mmHg 94%
    07:00 +20°C° 0 mm 5 m/S 761 mmHg 94%
    08:00 +22°C° 0 mm 5 m/S 761 mmHg 88%
    09:00 +23°C° 0 mm 6 m/S 761 mmHg 82%
    10:00 +26°C° 0 mm 6 m/S 762 mmHg 75%
    11:00 +26°C° 0 mm 6 m/S 761 mmHg 74%
    12:00 +27°C° 0 mm 6 m/S 760 mmHg 72%
    13:00 +27°C° 0 mm 6 m/S 760 mmHg 70%
    14:00 +27°C° 0 mm 6 m/S 760 mmHg 71%
    15:00 +27°C° 0 mm 6 m/S 760 mmHg 72%
    16:00 +27°C° 0 mm 6 m/S 759 mmHg 72%
    17:00 +25°C° 0 mm 5 m/S 760 mmHg 78%
    18:00 +23°C° 0 mm 5 m/S 760 mmHg 83%
    19:00 +22°C° 0 mm 5 m/S 760 mmHg 88%
    20:00 +22°C° 0 mm 5 m/S 761 mmHg 90%
    21:00 +22°C° 0 mm 5 m/S 761 mmHg 91%
    22:00 +21°C° 0 mm 5 m/S 761 mmHg 93%
    23:00 +21°C° 0 mm 5 m/S 761 mmHg 94%

    25 Mai, Freitag

    Zeit Temperatur Niederschläge Wind Luftdruck Luftfeuchtigkeit
    00:00 +22°C° 0 mm 5 m/S 760 mmHg 94%
    01:00 +22°C° 0 mm 5 m/S 760 mmHg 94%
    02:00 +21°C° 0 mm 5 m/S 760 mmHg 94%
    03:00 +21°C° 0 mm 5 m/S 759 mmHg 95%
    04:00 +21°C° 0 mm 5 m/S 759 mmHg 96%
    05:00 +21°C° 0,1 mm 4 m/S 759 mmHg 96%
    06:00 +22°C° 0,1 mm 4 m/S 760 mmHg 96%
    07:00 +22°C° 0,1 mm 4 m/S 760 mmHg 96%
    08:00 +23°C° 0,1 mm 4 m/S 760 mmHg 92%
    09:00 +25°C° 0,1 mm 5 m/S 760 mmHg 87%
    10:00 +26°C° 0,1 mm 5 m/S 760 mmHg 82%
    11:00 +26°C° 0,1 mm 5 m/S 760 mmHg 81%
    12:00 +27°C° 0,1 mm 5 m/S 759 mmHg 81%
    13:00 +27°C° 0,1 mm 5 m/S 758 mmHg 80%
    14:00 +27°C° 0,1 mm 5 m/S 758 mmHg 81%
    15:00 +26°C° 0,1 mm 5 m/S 758 mmHg 83%
    16:00 +26°C° 0,1 mm 4 m/S 758 mmHg 84%
    17:00 +25°C° 0,1 mm 4 m/S 758 mmHg 88%
    18:00 +23°C° 0,1 mm 4 m/S 759 mmHg 92%
    19:00 +22°C° 0,1 mm 4 m/S 759 mmHg 96%
    20:00 +22°C° 0 mm 4 m/S 759 mmHg 97%
    21:00 +21°C° 0 mm 4 m/S 760 mmHg 97%
    22:00 +21°C° 0 mm 4 m/S 760 mmHg 98%
    23:00 +21°C° 0 mm 4 m/S 760 mmHg 98%
    Mehr zeigen